Probability
2 2 1 0 0 0 0 0 0 0 0 0 0 0 0 0 0 0 0 0 0 0 0 1 1 1 1 0 0 1 1 1 0 0 0 0 0 0 0 0 0 0 1
1 1 0 0 0 0 0 0 0 0 0 0 0 0 0 0 0 0 0 0 0 0 0 0 1 2 2 1 1 2 3 3 2 1 1 0 0 0 0 0 0 0 1
0 0 0 0 0 0 0 0 0 0 0 0 0 0 0 0 0 0 0 0 0 0 0 0 0 1 2 2 1 2 4 5 5 3 2 1 1 0 0 0 0 0 1
0 0 0 0 0 0 0 0 0 0 0 0 0 0 0 0 0 0 0 0 0 0 0 0 0 0 1 2 2 2 3 5 6 5 4 3 2 1 0 0 0 0 0
0 0 0 0 0 0 0 0 0 0 0 0 0 0 0 0 0 0 0 0 0 0 0 0 0 0 0 1 2 2 3 4 5 6 5 4 3 2 1 0 0 0 0
0 0 0 0 0 0 0 0 0 0 0 0 0 0 0 0 0 0 0 0 0 0 0 0 0 0 0 0 1 2 3 3 4 6 6 5 4 3 2 1 1 1 0
0 0 0 0 0 0 0 0 0 0 0 0 0 0 0 0 0 0 0 0 0 0 0 0 0 0 0 0 0 1 1 2 4 6 7 6 5 5 4 3 2 2 1
0 0 0 0 0 0 0 0 0 0 0 1 1 1 0 0 0 0 0 0 0 0 0 0 0 0 0 0 0 0 0 1 3 5 7 7 6 5 4 3 4 3 2
0 0 0 0 0 0 0 0 0 0 0 1 1 1 0 0 0 0 0 0 0 0 0 0 0 0 0 0 0 0 0 0 1 3 5 6 6 5 5 4 5 5 5
0 0 0 0 0 0 0 0 0 0 0 0 1 1 1 0 0 0 0 0 0 0 0 0 0 0 0 0 0 0 0 0 0 0 2 5 7 7 6 6 6 6 5
0 0 0 0 0 0 0 0 0 0 0 0 0 1 1 1 0 0 0 0 0 0 0 0 0 0 0 0 0 0 0 0 0 0 1 3 6 7 7 6 5 4 3
0 0 0 0 0 0 0 0 0 0 0 0 0 0 1 1 0 0 0 0 0 0 0 0 0 0 0 0 0 0 0 0 0 0 1 2 4 5 5 5 3 2 2
0 0 0 0 0 0 0 0 0 0 0 0 0 0 0 0 0 0 0 0 0 0 0 0 0 0 0 0 0 0 0 0 0 0 0 1 2 2 2 3 2 1 2
0 0 0 0 0 0 0 0 0 0 0 0 0 0 0 0 0 0 0 0 0 0 0 0 0 0 0 0 0 0 0 0 0 0 0 0 1 1 0 1 1 0 1
0 0 0 0 0 0 0 0 0 0 0 0 0 0 0 0 0 0 0 0 0 0 0 0 0 0 0 0 0 0 0 0 0 0 0 0 0 0 0 0 0 0 0
0 0 0 0 0 0 0 0 0 0 0 0 0 0 0 0 0 0 0 0 0 0 0 0 0 0 0 0 0 0 0 0 0 0 0 0 0 0 0 0 0 0 0
0 0 0 0 0 0 0 0 0 0 0 0 0 0 0 0 0 0 0 0 0 0 0 0 0 0 0 0 0 0 0 0 0 0 0 0 0 0 0 0 0 0 0
0 0 0 0 0 0 0 0 0 0 0 0 0 0 0 0 0 0 0 0 0 0 0 0 0 0 0 0 0 0 0 0 0 0 0 0 0 0 0 0 0 0 0
0 0 0 0 0 0 0 0 0 0 0 0 0 0 0 0 0 0 0 0 0 0 0 0 0 0 0 0 0 0 0 0 0 0 0 0 0 0 0 0 0 0 0
0 0 0 0 0 0 0 0 0 0 0 0 0 0 0 0 0 0 0 0 0 0 0 0 0 0 0 0 0 0 0 0 0 0 0 0 0 0 0 0 0 0 0
0 0 0 0 0 0 0 0 0 0 0 0 0 0 0 0 0 0 0 0 0 0 0 0 0 0 0 0 0 0 0 0 0 0 0 0 0 0 0 0 0 0 0
0 0 0 0 0 0 0 0 0 0 0 0 0 0 0 0 0 0 0 0 0 0 0 0 0 0 0 0 0 0 0 0 0 0 0 0 0 0 0 0 0 0 0
0 0 0 0 0 0 0 0 0 0 0 0 0 0 0 0 0 0 0 0 0 0 0 0 0 0 0 0 0 0 0 0 0 0 0 0 0 0 0 0 0 0 0
0 0 0 0 0 0 0 0 0 0 0 0 0 0 0 0 0 0 0 0 0 0 0 0 0 0 0 0 0 0 0 0 0 0 0 0 0 0 0 0 0 0 0
0 0 0 0 0 0 0 0 0 0 0 0 0 0 0 0 0 0 0 0 0 0 0 0 0 0 0 0 0 0 0 0 0 0 0 0 0 0 0 0 0 0 0
0 0 0 0 0 0 0 0 0 0 0 0 0 0 0 0 0 0 0 0 0 0 0 0 0 0 0 0 0 0 0 0 0 0 0 0 0 0 0 0 0 0 0
Wind_Speed
3 3 3 3 4 3 3 3 3 4 4 4 4 4 4 4 3 3 3 8 9 9 8 8 7 6 5 6 6 5 6 6 5 6 6 6 6 6 6 6 6 5 5
2 2 3 3 3 3 3 3 4 3 3 3 4 4 4 3 3 3 3 4 7 8 8 8 7 6 4 5 5 5 5 4 4 4 5 5 5 5 6 5 5 5 5
2 2 2 3 3 3 3 3 4 3 3 3 3 4 3 3 2 3 3 3 3 5 7 8 8 7 5 4 4 4 3 3 3 3 4 4 4 4 4 4 5 5 5
3 2 2 2 2 2 2 3 3 3 2 3 3 3 3 2 2 3 3 3 3 3 5 8 9 8 6 5 5 4 3 3 3 3 3 3 3 3 3 3 4 5 4
3 2 2 2 2 2 2 3 3 2 2 3 2 2 3 2 2 2 3 4 4 3 3 5 7 8 8 6 5 5 4 3 3 3 3 3 3 3 3 3 3 3 4
3 2 2 3 2 2 2 3 3 3 2 2 2 2 2 1 1 2 2 2 3 3 4 4 4 4 6 7 7 6 5 4 4 3 3 3 3 3 3 3 3 3 3
2 2 2 2 2 2 2 2 2 3 3 2 1 2 1 1 1 2 2 2 2 3 3 4 3 3 3 5 7 7 6 5 4 4 4 4 3 4 4 4 4 4 4
2 2 2 2 2 1 2 2 2 2 2 3 2 1 1 1 1 1 2 2 3 3 3 4 4 4 4 3 5 7 8 7 6 5 4 5 4 4 5 5 5 6 6
2 2 2 1 1 1 1 2 2 2 2 2 3 3 2 1 2 1 1 2 3 3 3 3 4 4 4 4 4 5 8 8 8 6 6 6 5 5 6 6 6 6 6
2 2 1 1 1 1 1 2 2 2 2 2 1 2 3 2 2 2 1 1 3 4 4 3 4 3 4 3 4 7 8 9 8 8 8 8 7 7 7 7 7 7 7
2 1 1 1 1 1 1 1 2 2 1 2 2 1 1 1 2 3 3 3 3 3 3 4 3 3 4 4 4 6 9 9 9 9 9 10 9 9 8 8 8 8 7
1 1 1 1 1 1 1 1 1 1 1 2 2 2 2 2 2 3 4 4 4 4 4 4 3 3 3 4 5 8 9 9 10 10 10 10 10 10 10 9 9 9 9
1 1 0 0 0 0 1 1 1 1 2 2 2 2 2 2 2 3 4 4 5 4 4 3 3 3 3 4 4 8 8 9 10 10 10 11 11 11 11 11 10 10 10
2 1 1 0 0 0 1 1 1 1 2 2 3 3 2 2 2 3 3 4 5 4 4 4 3 3 3 4 5 8 6 8 9 10 11 11 11 12 12 12 12 11 11
2 2 1 1 0 1 1 1 1 1 2 2 3 3 3 2 3 3 3 4 4 5 5 4 4 3 4 4 6 6 6 8 10 11 11 11 12 12 12 12 12 12 12
2 2 2 1 1 1 1 1 1 2 2 2 2 3 3 3 3 3 4 4 4 5 6 5 5 7 6 5 7 7 7 10 10 11 11 12 11 11 12 12 12 12 12
3 2 2 2 1 1 1 1 2 2 3 3 3 3 4 4 4 4 4 4 5 5 7 7 6 7 8 7 6 7 7 7 6 10 11 12 11 12 13 13 13 13 13
3 2 2 2 2 2 2 2 2 2 3 3 3 3 4 3 5 4 4 5 5 6 7 9 7 7 8 8 7 8 7 6 7 10 11 12 12 13 13 13 13 13 13
3 2 2 2 2 2 2 2 3 3 3 4 4 4 4 5 5 5 5 6 5 5 6 7 8 7 7 6 7 7 8 7 7 8 10 11 12 13 14 14 14 13 13
3 2 2 2 2 2 2 3 3 3 4 4 4 5 5 5 6 6 6 6 6 6 6 7 7 7 6 7 7 6 6 6 6 7 8 9 11 12 13 14 14 14 14
2 2 2 2 2 2 2 3 3 4 4 4 5 5 5 6 7 7 6 6 6 6 6 7 7 7 6 6 7 6 7 7 7 6 7 7 7 8 9 11 13 14 15
2 2 2 2 2 2 3 4 5 4 4 5 5 5 5 6 7 9 10 10 10 8 8 7 7 8 9 8 8 7 7 8 7 5 7 8 7 8 8 8 12 15 16
2 2 2 2 2 2 4 5 6 5 5 5 5 5 4 5 7 6 8 9 10 11 12 10 10 10 10 9 9 10 9 9 9 7 8 9 8 9 8 9 15 17 17
2 2 2 2 2 3 4 5 6 5 5 5 6 6 6 6 6 7 7 7 8 8 9 8 9 10 9 9 9 9 10 10 10 8 8 9 8 9 9 9 14 16 16
2 1 2 2 2 3 4 5 6 4 4 6 6 6 6 7 8 10 8 8 8 8 8 11 12 13 14 14 11 8 8 8 9 7 6 8 8 9 9 9 10 14 15
2 1 2 2 3 3 4 5 6 4 4 5 5 5 7 8 10 11 8 7 8 8 7 8 9 10 10 10 11 9 7 8 8 7 5 6 7 7 7 7 7 7 9
Wind_Direction
48 46 42 35 31 25 25 24 27 33 35 33 34 34 34 30 34 35 41 38 31 29 30 31 32 40 54 54 58 60 57 55 53 51 48 50 50 47 49 47 43 41 37
48 46 45 36 31 24 21 21 25 24 28 29 33 34 30 24 35 38 32 40 38 29 26 24 22 24 39 42 45 49 49 49 46 42 38 38 40 43 44 38 35 33 26
53 53 49 41 32 26 26 27 28 26 32 31 33 33 29 20 29 37 34 25 30 34 25 20 16 17 21 29 28 31 34 38 35 25 23 20 15 26 33 29 27 26 26
52 55 53 45 35 32 31 31 25 22 27 25 24 23 21 14 28 35 38 30 22 18 29 25 20 16 12 15 11 10 12 18 20 12 7 5 8 7 12 21 20 18 14
60 62 56 46 37 37 37 32 29 16 26 24 15 17 10 3 26 43 45 41 35 25 18 23 18 15 12 9 0 356 348 351 356 354 357 359 350 343 344 348 350 354 1
68 67 67 53 39 42 42 36 33 26 24 23 9 17 5 1 27 42 37 42 35 24 14 7 1 7 10 6 2 348 338 333 336 336 334 340 334 326 312 314 319 323 330
71 69 72 66 46 42 41 37 36 38 33 16 1 11 6 55 63 34 31 25 25 16 9 4 353 351 355 5 4 358 341 328 322 324 318 314 316 321 312 303 302 306 306
65 66 74 70 57 51 48 42 32 26 20 2 339 298 273 196 93 15 9 4 360 358 357 358 355 353 348 343 357 357 353 344 328 320 316 311 304 302 302 300 295 293 291
68 59 67 67 57 43 37 23 12 16 5 5 353 324 304 318 338 279 327 343 352 348 345 343 339 341 344 342 342 0 358 351 343 327 312 304 300 294 293 293 294 292 290
86 71 63 59 55 34 28 10 3 351 345 341 348 353 340 332 298 301 279 311 332 330 331 328 323 332 338 334 344 350 349 343 336 332 322 308 301 296 293 291 290 290 291
97 81 61 53 49 27 11 5 359 349 330 317 322 320 319 313 292 277 287 305 309 309 317 313 314 327 332 330 333 347 343 333 326 323 320 316 303 295 291 290 289 288 288
122 105 77 46 35 22 360 346 342 334 321 314 309 304 295 292 306 297 288 301 304 306 304 299 304 315 320 322 332 340 335 331 323 317 314 314 312 302 295 290 288 286 285
151 144 123 160 339 347 326 316 311 305 303 297 295 294 292 287 289 287 285 293 295 299 285 278 292 295 308 314 318 330 323 325 325 316 310 310 313 311 309 294 285 283 282
163 161 173 207 279 295 295 291 281 285 283 283 285 283 286 283 279 280 283 290 292 288 281 287 286 281 304 307 314 315 306 314 316 315 313 312 312 311 309 304 293 287 283
158 166 174 182 214 270 278 270 266 283 283 280 280 280 279 281 275 272 270 271 277 285 288 297 299 293 303 298 302 297 296 305 307 305 305 306 307 305 303 300 294 288 284
164 171 182 186 205 235 255 265 277 282 281 281 280 278 276 277 276 270 268 267 264 268 276 285 292 299 294 287 292 290 289 298 292 293 297 301 300 300 299 299 295 292 287
169 176 187 195 212 232 246 254 263 270 273 278 278 278 285 287 279 273 271 266 265 267 273 283 285 292 290 287 289 288 286 286 285 289 292 293 296 297 296 294 293 290 287
175 182 190 197 209 231 244 249 258 263 269 274 278 281 285 288 285 278 271 269 269 272 275 283 289 290 288 287 285 286 287 284 283 287 289 289 291 292 291 290 289 290 289
179 182 190 202 219 237 247 256 261 265 269 273 277 281 286 286 284 284 282 276 274 275 276 280 286 290 286 287 286 283 283 284 285 285 285 284 284 288 288 286 286 286 287
184 191 205 219 233 242 247 254 263 266 270 274 276 278 281 280 282 283 283 282 281 279 277 277 280 284 285 289 287 284 285 284 286 287 283 284 285 286 284 283 283 282 283
188 195 210 227 238 242 248 263 270 274 276 277 277 277 277 282 286 284 282 283 283 279 279 279 283 284 284 285 286 286 283 285 283 282 284 282 282 278 277 276 276 277 278
186 196 211 225 242 252 267 275 282 279 279 279 281 281 280 275 278 281 283 285 284 282 282 282 284 283 285 288 293 288 284 284 283 281 284 283 280 277 275 273 276 278 278
194 207 222 235 254 270 273 274 277 280 277 277 279 282 283 283 283 282 282 281 279 278 278 278 279 281 284 286 287 287 285 283 285 289 285 281 279 276 275 274 278 277 276
205 217 232 246 262 276 282 280 278 276 274 275 277 277 280 282 282 286 285 283 282 280 279 276 278 283 286 286 281 283 285 287 287 278 276 279 279 278 278 274 274 274 275
214 229 244 255 268 280 282 285 283 278 274 277 278 278 280 282 287 288 287 286 287 287 286 283 284 286 289 290 289 283 281 281 284 284 279 279 283 286 282 276 272 272 276
223 238 253 263 270 279 286 288 286 276 277 281 281 279 275 281 289 290 287 287 287 291 293 292 287 286 285 285 284 277 276 275 282 286 278 281 287 296 288 277 280 280 278